Location: Newark
(25.6108°S, 54.5803°W)
Time: 09:29:32
(UTC+00:00)

deb Explorer IX - Pass Details

Date: 04 November 2020
Orbit: 538 x 1104 km, 38.8° (Epoch: 23 November)

Event Time Altitude Azimuth Distance (km) Brightness Sun altitude
Rises 00:19:26 0° 241° (WSW) 3,008 ? -29.5°
Reaches altitude 10° 00:21:57 10° 242° (WSW) 2,013 ? -30.0°
Enters shadow 00:24:38 33° 250° (WSW) 1,009 ? -30.4°
Maximum altitude 00:26:30 72° 325° (NW) 611 - -30.8°
Drops below altitude 10° 00:30:36 10° 50° (NE) 1,813 - -31.5°
Sets 00:32:46 0° 52° (NE) 2,681 - -31.9°
